TimeEDT,TemperatureF,Dew PointF,Humidity,Sea Level PressureIn,VisibilityMPH,Wind Direction,Wind SpeedMPH,Gust SpeedMPH,PrecipitationIn,Events,Conditions,WindDirDegrees,DateUTC
12:53 AM,55.0,51.1,86,30.08,10.0,WNW,5.8,-,N/A,,Clear,290,2012-11-03 04:53:00
1:53 AM,54.0,50.0,86,30.08,10.0,WNW,4.6,-,N/A,,Clear,290,2012-11-03 05:53:00
2:53 AM,53.1,51.1,93,30.07,10.0,Calm,Calm,-,N/A,,Clear,0,2012-11-03 06:53:00
3:53 AM,51.1,50.0,96,30.07,10.0,Calm,Calm,-,N/A,,Clear,0,2012-11-03 07:53:00
4:53 AM,48.9,46.9,93,30.08,10.0,Calm,Calm,-,N/A,,Clear,0,2012-11-03 08:53:00
5:53 AM,52.0,48.9,89,30.09,10.0,WSW,3.5,-,N/A,,Clear,240,2012-11-03 09:53:00
6:53 AM,53.1,51.1,93,30.11,10.0,Calm,Calm,-,N/A,,Clear,0,2012-11-03 10:53:00
7:53 AM,52.0,51.1,97,30.12,10.0,Calm,Calm,-,N/A,,Clear,0,2012-11-03 11:53:00
8:53 AM,57.9,55.9,93,30.14,10.0,West,4.6,-,N/A,,Clear,260,2012-11-03 12:53:00
9:53 AM,66.9,59.0,76,30.14,10.0,NW,6.9,-,N/A,,Clear,310,2012-11-03 13:53:00
10:53 AM,73.0,62.1,68,30.14,10.0,NW,9.2,-,N/A,,Clear,310,2012-11-03 14:53:00
11:53 AM,77.0,62.1,60,30.13,10.0,NNW,8.1,-,N/A,,Clear,340,2012-11-03 15:53:00
12:53 PM,79.0,60.1,52,30.12,10.0,NW,5.8,-,N/A,,Partly Cloudy,320,2012-11-03 16:53:00
1:53 PM,80.1,54.0,40,30.09,10.0,NE,8.1,-,N/A,,Clear,50,2012-11-03 17:53:00
2:53 PM,80.1,57.9,47,30.07,10.0,NNE,5.8,-,N/A,,Clear,20,2012-11-03 18:53:00
3:53 PM,79.0,57.0,47,30.06,10.0,ENE,6.9,-,N/A,,Clear,70,2012-11-03 19:53:00
4:53 PM,77.0,59.0,54,30.07,10.0,ENE,8.1,-,N/A,,Clear,60,2012-11-03 20:53:00
5:53 PM,75.0,60.1,60,30.07,10.0,ENE,5.8,-,N/A,,Clear,60,2012-11-03 21:53:00
6:53 PM,69.1,60.1,73,30.08,10.0,Calm,Calm,-,N/A,,Clear,0,2012-11-03 22:53:00
7:53 PM,64.9,59.0,81,30.09,10.0,Calm,Calm,-,N/A,,Clear,0,2012-11-03 23:53:00
8:53 PM,61.0,57.0,87,30.09,10.0,Calm,Calm,-,N/A,,Clear,0,2012-11-04 00:53:00
9:53 PM,60.1,57.9,93,30.10,10.0,Calm,Calm,-,N/A,,Clear,0,2012-11-04 01:53:00
10:53 PM,59.0,57.9,96,30.11,10.0,Calm,Calm,-,N/A,,Clear,0,2012-11-04 02:53:00
11:53 PM,60.1,57.9,93,30.11,9.0,SW,3.5,-,N/A,,Clear,230,2012-11-04 03:53:00